Location: Sobotiste
(48.7170°N, 17.4000°E)
Time: 23:51:53
(UTC+02:00)

Envisat - Visible Passes

Search period start: 26 May 2018 00:00
Search period end: 05 June 2018 00:00
Orbit: 764 x 766 km, 98.2° (Epoch: 26 May)

Date Brightness Start Highest point End Pass type
(mag) Time Alt. Az. Time Alt. Az. Time Alt. Az.
26 May 5.3 21:10:12 10° SW 21:14:13 23° W 21:18:15 10° NW visible
28 May 5.7 21:37:27 10° WSW 21:40:07 14° W 21:42:46 10° NW visible
31 May 5.6 21:25:27 10° SW 21:28:48 18° W 21:32:10 10° NW visible
02 Jun 6.1 21:54:24 10° W 21:54:46 10° W 21:55:07 10° W visible
